User: anonymous   Login
Location: Castle
(40.7167°S, 175.9500°E)
Time: 18:10:08
(UTC+00:00)
Language:

OAO 3 Rocket - Orbit

View from above orbital plane
View from above orbital plane
View from above satellite
View from above satellite

Ground track
Ground track

The orbit data is extracted from the following two-line orbital elements,

1  6155U 72065B   24282.19311373  .00015996  00000-0  22990-2 0  9997
2  6155  35.0016  93.7242 0035768 340.2251  19.7061 14.75260491785639
Epoch (UTC): 08 October 2024 04:38:05
Eccentricity: 0.0035768
inclination: 35.0016°
perigee height: 619 km
apogee height: 669 km
right ascension of ascending node: 93.7242°
argument of perigee: 340.2251°
revolutions per day: 14.75260491
mean anomaly at epoch: 19.7061°
orbit number at epoch: 78563

The dashed part of the orbit path shows where the satellite is in the earth's shadow,  

DLR